www.pogodaiklimat.ru

Погода и климат >> Архив погоды >> Испания >> Альбасете


ПОГОДА в Альбасете

  • Прогноз погоды в Альбасете
  • Монитор погоды в Альбасете

АРХИВ ПОГОДЫ в Альбасете

Время (UTC), дата Ветер
(напр.,м/с)
 
Видим.   Явления Облачность Т
(С)
Тd
(С)
f
(%)
Тe
(С)
Тes
(С)
Комфортность P
(гПа)
Po
(гПа)
Тmin
(С)
Tmax
(С)
R
(мм)
R24
(мм)
S
(см)
12 18.06 ЮВ 2 25 км 1/1 1500 м
[Cu hum]
+29.8 +3.7 19 +28 +46 жарко 1010.8 934.4
15 18.06 ЮВ 4 25 км 1/1 1500 м
[Sc diur, vesp]
+31.6 +5.2 19 +30 +37 жарко 1008.7 932.9
18 18.06 Ю 5 30 км 1/1 1500 м
[Sc diur, vesp Ac trans]
+29.5 +9.1 28 +29 +30 жарко 1009.3 933.1 +31.9
06 19.06 З 4 30 км 1/0
[Cs]
+17.5 +11.1 66 +17 +18 1015.3 935.6 +16.1
09 19.06 С 5 30 км 3/1 1000 м
[Cu hum Ci fib]
+23.2 +12.2 50 +26 +32 жарко 1013.9 935.8
12 19.06 З 3 30 км 1/0
[Ci sp]
+27.8 +10.9 35 +29 +47 жарко 1012.1 935.3
15 19.06 В 4 30 км 3/0
[Ac lent Cs]
+30.2 +9.1 27 +30 +38 жарко 1009.4 933.3
18 19.06 З 6 30 км 1/0
[Ac lent Ci sp]
+30.1 +2.4 17 +28 +28 жарко 1008.7 932.5 +31.7
21 19.06 З 2 25 км ясно +23.0 +6.7 35 +24 +24 комфорт 1012.1 934.0
00 20.06 З 3 25 км ясно +18.8 +6.9 46 +20 +20 1013.9 934.6
03 20.06 ЮЗ 2 25 км ясно +15.4 +8.2 62 +16 +16 1014.3 934.1
06 20.06 З 2 30 км ясно +16.3 +8.3 59 +17 +18 1014.0 934.1 +14.6
09 20.06 СЗ 4 30 км ясно +24.1 +9.7 40 +25 +33 комфорт 1011.8 934.1
12 20.06 ЮЗ 3 30 км 4/1
[Cu hum Ac trans]
+28.4 +7.6 27 +28 +40 жарко 1009.9 933.3
15 20.06 СЗ 3 30 км 4/4
[Cu hum Ac trans]
+30.6 +6.5 22 +29 +36 жарко 1007.0 931.1
18 20.06 ЮЗ 3 30 км 4/4 2000 м
[Cu hum]
+29.9 +8.9 27 +29 +30 жарко 1006.6 930.7 +31.6
21 20.06 Ю 3 25 км ясно +22.6 +13.4 56 +26 +26 жарко 1010.8 932.9
00 21.06 Ю 2 25 км ясно +19.2 +13.2 68 +21 +21 комфорт 1012.2 933.3
03 21.06 З 3 30 км 6/0
[Ac trans Cs]
+18.0 +9.1 56 +18 +18 1012.6 933.2
06 21.06 СВ 1 30 км 3/0
[Ac As]
+15.9 +11.7 76 +17 +18 1014.7 934.7 +15.0
09 21.06 СЗ 3 30 км 4/1 1500 м
[Cu hum Ac trans]
+23.7 +11.4 46 +25 +32 комфорт 1012.9 935.0
12 21.06 С 3 25 км 6/4 1500 м
[Sc Ac trans Ci fib]
+27.6 +8.0 29 +27 +37 жарко 1011.3 934.4
15 21.06 С 2 30 км 6/5 1500 м
[Sc Ac trans Ci fib]
+30.7 +7.8 24 +30 +36 жарко 1009.0 933.0
18 21.06 С 2 30 км 5/5 1500 м
[Cu Sc Ac trans]
+29.4 +6.7 24 +28 +29 жарко 1009.2 932.9 +31.8
21 21.06 ЮВ 8 30 км 1/1 2000 м
[Cu hum Ci fib]
+20.8 +13.7 64 +23 +23 комфорт 1014.2 935.6
00 22.06 В 2 30 км 1/1 1500 м
[Cu hum Ci fib]
+18.3 +11.1 63 +19 +19 1016.4 936.9
03 22.06 ЮВ 2 30 км 3/1 600 м
[Cu hum Ci fib]
+15.3 +11.3 77 +15 +15 1016.7 936.4
06 22.06 ЮВ 3 50 км 1/1 600 м
[St Ci fib]
+16.8 +12.5 76 +17 +17 1016.7 936.8 +14.9
09 22.06 ЮВ 5 40 км 5/0
[Ci sp]
+23.5 +12.2 49 +25 +32 комфорт 1014.8 936.7
12 22.06 ЮВ 5 30 км 4/1 2000 м
[Cu hum Ci sp]
+28.7 +11.3 34 +29 +38 жарко 1012.2 935.6
15 22.06 Ю 5 30 км 4/1 2000 м
[Cu hum Ci sp]
+30.5 +9.9 28 +30 +36 жарко 1009.9 933.9
18 22.06 ЮВ 6 30 км 5/1 2000 м
[Cu hum Ci sp]
+28.3 +10.9 34 +29 +29 жарко 1010.3 933.7 +31.2
21 22.06 Ю 5 30 км 1/0
[Ci fib]
+22.4 +10.2 46 +24 +24 комфорт 1013.0 934.8
00 23.06 ЮВ 3 30 км 1/0
[Cc]
+19.2 +11.0 59 +20 +20 1014.5 935.3
03 23.06 ЮВ 4 30 км ясно +17.2 +9.4 60 +17 +17 1014.2 934.5
06 23.06 ЮВ 2 30 км ясно +18.0 +8.6 54 +19 +20 1014.5 935.0 +16.1
09 23.06 ЮВ 4 30 км ясно +27.1 +5.4 25 +26 +35 жарко 1012.4 935.3
12 23.06 Ю 6 40 км ясно +31.4 +4.2 18 +29 +38 жарко 1010.3 934.3
15 23.06 ЮВ 5 30 км ясно +33.4 +6.6 19 +31 +38 жарко 1008.1 932.8
18 23.06 Ю 6 30 км ясно +31.0 +7.5 23 +30 +30 жарко 1007.9 932.1 +33.7
21 23.06 Ю 5 30 км 4/0
[Ci fib]
+22.2 +8.3 41 +23 +23 комфорт 1013.3 934.9
00 24.06 СВ 2 30 км ясно +17.9 +7.9 52 +19 +19 1015.3 935.7
03 24.06 В 3 30 км ясно +15.2 +7.5 60 +15 +15 1015.2 934.9
06 24.06 В 1 30 км 4/0
[Cs]
+16.0 +9.0 63 +17 +18 1015.0 934.9 +14.4
09 24.06 В 3 30 км 5/0
[Cs]
+24.8 +5.1 28 +24 +34 комфорт 1012.6 934.9
12 24.06 СВ 2 30 км 4/0
[Ci fib]
+29.9 +7.8 25 +29 +48 жарко 1010.5 934.2
15 24.06 ЮВ 3 30 км 1/0
[Ci fib]
+32.5 +8.7 23 +31 +43 жарко 1008.3 932.8
18 24.06 С 5 30 км 1/0
[Ci fib]
+31.0 +11.9 31 +31 +32 жарко 1008.2 932.5 +33.6
21 24.06 ЮВ 5 40 км ясно +23.9 +8.7 38 +25 +25 комфорт 1012.9 935.0
00 25.06 Ю 3 40 км ясно +19.8 +6.2 41 +21 +21 комфорт 1014.8 935.7
03 25.06 ЮВ 2 40 км ясно +17.4 +7.7 53 +18 +18 1015.0 935.3
06 25.06 ЮВ 1 30 км 1/0 2000 м
[Ac trans]
+16.6 +8.3 58 +17 +19 1016.2 936.2 +15.7

 

Местоположение метеостанции Альбасете (Испания): широта 38.95 долгота -1.85 высота над уровнем моря 704 м.

В архиве по умолчанию представлена погода в Альбасете за последнюю неделю. Архивные данные за месяц целиком и за предыдущие месяцы, начиная с января 2011 года, Вы можете получить, выбрав интересующий диапазон дат из раскрывающегося списка и нажав кнопку "Ввод!".


*Определитесь, кто Вы:
робот инопланетянин человек

Внимание! Время в таблицах - всемирное. Для получения местного времени необходимо прибавить поправку, которая равна 1 ч.

Смотрите также архив погоды в соседних городах и на ближайших метеорологических станциях:

Погода в Альбасете (Испания) (7 км)
Погода в Хеллине (Испания) (47 км)
Погода в Екле (Испания) (71 км)
Погода в Сан-Клементе (Испания) (72 км)
Погода в Вильярродриго (Испания) (86 км)
Погода в Утьель - La Cubera (Испания) (88 км)
Погода в Сьеса - Парк де Бомберос (Испания) (90 км)
Погода в Пиносо (Испания) (93 км)
Погода в Каравака - Фуэнтес Дель (Испания) (95 км)
Погода в Томельосо (Испания) (103 км)

Пояснения к столбцам:

Ветер - указаны скорость ветра в м/с - средняя за 10 мин, порывы в срок и между сроками (в фигурных скобках) и направление, откуда дует ветер: С - северный, СВ - северо-восточный, В - восточный, ЮВ - юго-восточный, Ю - южный, ЮЗ - юго-западный, З - западный, СЗ - северо-западный.
Видимость - горизонтальная дальность видимости в метрах или километрах. При видимости от 1 до 10 км при отсутствии осадков обычно наблюдается дымка, при ухудшении видимости до 1 км и менее - туман. В сухую погоду видимость может ухудшаться дымом, пылью или мглою.
Явления - указаны атмосферные явления, наблюдавшиеся в срок или в последний час перед сроком; фигурными скобками обозначены явления, наблюдавшиеся между сроками (за 1-3 часа до срока); квадратными скобками обозначены град или гололедные отложения с указанием их диаметра в мм.
Облачность - указаны через наклонную черту общая и нижняя облачность в баллах и высота нижней границы облаков в метрах; квадратными скобками обозначены формы облаков: Ci - перистые, Cs - перисто-слоистые, Cc - перисто-кучевые, Ac - высококучевые, As - высокослоистые, Sc - слоисто-кучевые, Ns - слоисто-дождевые, Cu - кучевые, Cb - кучево-дождевые. Подробнее классификацию облаков см. в Атласе облаков (PDF).
T - Температура воздуха - температура, измеренная на высоте 2 м над землей.
Td - Температура точки росы - температура, при понижении до которой содержащийся в воздухе водяной пар достигнет насыщения.
f - Относительная влажность воздуха - влажноcть воздуха, измеренная на высоте 2 м над землей.
Te - Эффективная температура - температура, которую ощущает одетый по сезону человек в тени. Характеристика душности погоды. При расчете учитывается влияние влажности воздуха и скорости ветра на теплоощущения человека.
Tes - Эффективная температура на солнце - температура, которую ощущает человек, с поправкой на солнечный нагрев. Характеристика знойности погоды. Зависит от высоты солнца над горизонтом, облачности и скорости ветра. Ночью, в пасмурную погоду, а также при ветре 12 м/с и более поправка равна нулю.
P - Атмосферное давление - приведенное к уровню моря атмосферное давление.
Po - Атмосферное давление - измеренное на уровне метеостанции атмосферное давление.
Tmin - Минимальная температура - минимум температуры воздуха на высоте 2 м над землей.
Tmax - Максимальная температура - максимум температуры воздуха на высоте 2 м над землей.
R - Количество осадков - Количество выпавших осадков за период времени, мм. При наведении курсора мыши на число - период времени, за который выпало указанное количество осадков.
R24 - Количество осадков - Количество выпавших осадков за 24 часа, мм.
S - Снежный покров - Высота снежного покрова, см. При наведении курсора мыши на число - состояние снежного покрова и степень покрытия местности в баллах.